XW-2A (40903 NORAD) Tracking and Keplerian Element Data

This shows tracking and keplerian element data for the satellite.

Feedback or suggestion? Click here.




ElementValue
Catalog40903
NameXW-2A
Epoch Orbit40364
Epoch Day325.1481187
Epoch Year2022
RAAN24.5086
Inclination97.1571
Eccentricity0.0006312
Argument of Perigee248.82
Mean Anonmoly195.4503
Mean Motion15.62374552
Decay Rate0.00036278
L11 40903U 15049E 22325.14811870 .00036278 00000+0 40982-3 0 9990
L22 40903 97.1571 24.5086 0006312 248.8200 195.4503 15.62374552403643



Live tracking and technical data element details for XW-2A (NORAD 40903). XW-2A can be tracked NOW for your location showing map with azimuth and elevation plus other details from your city location.







IsCatalogInMostPopularTable: catalog: 40903, numindb: 474
Update: records affected: 1



GetName: 40903 XW-2A

Hit Count: updated at: Fri, 02 Dec 2022 13:58:50 GMT